Location: Lower Kingswood
(51.2667°N, 0.2167°W)
Time: 13:56:01
(UTC+00:00)

Cosmos 1898 Rocket - Pass Details

Date: 26 September 2023
Orbit: 753 x 781 km, 74.0° (Epoch: 10 December)

Event Time Altitude Azimuth Distance (km) Brightness Sun altitude
Exits shadow 02:52:40 53° 139° (SE) 949 3.9 -27.2°
Maximum altitude 02:53:19 58° 108° (ESE) 910 3.9 -27.1°
Drops below altitude 10° 02:58:32 10° 31° (NNE) 2,346 6.9 -26.5°
Sets 03:00:58 0° 28° (NNE) 3,280 7.7 -26.1°
